Flight Track Log - Related Links

Times and Time Zones

All times are in EDT time to prevent confusion due to time zone crossing. See the N173AA flight status page for this flight to view local times or setup timezone preferences in your user account.

Time Position Orientation Groundspeed Altitude Reporting Facility
EDT Latitude Longitude Course Direction KTS MPH feet Rate Location/Type
12:24AM 30.2856 -81.8894 341° North 216 249 3,100  Level Jacksonville Center
12:24AM 30.3086 -81.8989 341° North 215 247 4,300 2,612 Climbing Jacksonville Center
12:25AM 30.3692 -81.8911 North 212 244 6,800 2,380 Climbing Jacksonville Center
12:26AM 30.4294 -81.8614 23° Northeast 233 268 9,100 2,029 Climbing Jacksonville Center
12:28AM 30.5042 -81.8317 19° North 249 287 11,500 1,899 Climbing Jacksonville Center
12:29AM 30.5667 -81.8069 19° North 249 287 13,500 1,950 Climbing Jacksonville Center
12:30AM 30.6333 -81.7797 19° North 249 287 15,400 1,850 Climbing Jacksonville Center
12:31AM 30.7000 -81.7547 18° North 249 287 17,200 1,650 Climbing Jacksonville Center
12:32AM 30.7600 -81.7081 34° Northeast 249 287 18,700 1,600 Climbing Jacksonville Center
12:33AM 30.8200 -81.6517 39° Northeast 261 300 20,400 1,700 Climbing Jacksonville Center
12:34AM 30.8864 -81.5950 36° Northeast 266 306 22,100 1,600 Climbing Jacksonville Center
12:35AM 30.9464 -81.5433 36° Northeast 271 312 23,600 1,350 Climbing Jacksonville Center
12:36AM 31.0083 -81.4892 37° Northeast 271 312 24,800 1,000 Climbing Jacksonville Center
12:37AM 31.0767 -81.4300 37° Northeast 276 318 25,600 850 Climbing Jacksonville Center
12:38AM 31.1511 -81.3731 33° Northeast 306 352 26,500 1,100 Climbing Jacksonville Center
12:39AM 31.2214 -81.3158 35° Northeast 315 362 27,800 1,400 Climbing Jacksonville Center
12:40AM 31.2917 -81.2589 35° Northeast 307 353 29,300 1,250 Climbing Jacksonville Center
12:41AM 31.3578 -81.2017 36° Northeast 300 345 30,300 800 Climbing Jacksonville Center
12:42AM 31.4197 -81.1469 37° Northeast 300 345 30,900 350 Climbing Jacksonville Center
12:43AM 31.5000 -81.0797 36° Northeast 315 362 31,000 50 Climbing Jacksonville Center
12:44AM 31.5783 -81.0125 36° Northeast 335 386 31,000  Level Jacksonville Center
12:45AM 31.6528 -80.9572 32° Northeast 349 402 31,000  Level Jacksonville Center
12:46AM 31.7433 -80.8794 36° Northeast 356 410 31,000  Level Jacksonville Center
12:47AM 31.8197 -80.8144 36° Northeast 356 410 31,000  Level Jacksonville Center
12:48AM 31.9122 -80.7414 34° Northeast 356 410 31,000  Level Jacksonville Center
12:49AM 31.9947 -80.6683 37° Northeast 361 415 31,000  Level Jacksonville Center
12:50AM 32.0686 -80.6078 35° Northeast 361 415 31,000  Level Jacksonville Center
12:51AM 32.1569 -80.5222 39° Northeast 361 415 31,000 -50 Level Jacksonville Center
12:52AM 32.2289 -80.4589 37° Northeast 365 420 30,900  Descending Jacksonville Center
12:53AM 32.3131 -80.3878 36° Northeast 359 413 31,000 50 Climbing Jacksonville Center
12:54AM 32.3908 -80.3192 37° Northeast 359 413 31,000  Level Jacksonville Center
12:55AM 32.4731 -80.2503 35° Northeast 359 413 31,000  Level Jacksonville Center
12:56AM 32.5550 -80.1814 35° Northeast 359 413 31,000  Level Jacksonville Center
12:57AM 32.6350 -80.1125 36° Northeast 354 407 31,000  Level Jacksonville Center
12:58AM 32.7169 -80.0408 36° Northeast 354 407 31,000  Level Jacksonville Center
12:59AM 32.7944 -79.9692 38° Northeast 354 407 31,000  Level Jacksonville Center
01:00AM 32.8764 -79.8972 36° Northeast 354 407 31,000  Level Jacksonville Center
01:01AM 32.9561 -79.8303 35° Northeast 354 407 31,000 -100 Level Jacksonville Center
01:02AM 33.0400 -79.7581 36° Northeast 354 407 30,800 -550 Descending Jacksonville Center
01:03AM 33.1217 -79.6833 37° Northeast 354 407 29,900 -650 Descending Jacksonville Center
01:04AM 33.2050 -79.6033 39° Northeast 364 419 29,500 -400 Descending Jacksonville Center
01:05AM 33.2889 -79.5331 35° Northeast 370 426 29,100 -250 Descending Jacksonville Center
01:06AM 33.3725 -79.4653 34° Northeast 370 426 29,000 -50 Descending Jacksonville Center
01:07AM 33.4561 -79.3897 37° Northeast 370 426 29,000  Level Jacksonville Center
01:08AM 33.5394 -79.3167 36° Northeast 375 432 29,000  Level Jacksonville Center
01:09AM 33.6883 -79.1803 37° Northeast 363 418 29,000 -180 Level Washington Center
01:10AM 33.7739 -79.1067 36° Northeast 363 418 28,500 -615 Descending Washington Center
01:11AM 33.8617 -79.0278 37° Northeast 376 433 27,800 -706 Descending Washington Center
01:12AM 33.9517 -78.9464 37° Northeast 386 444 27,100 -700 Descending Washington Center
01:13AM 34.0417 -78.8622 38° Northeast 398 458 26,400 -700 Descending Washington Center
01:14AM 34.1272 -78.7831 37° Northeast 398 458 25,700 -850 Descending Washington Center
01:15AM 34.2150 -78.7011 38° Northeast 398 458 24,700 -934 Descending Washington Center
01:16AM 34.3044 -78.6264 35° Northeast 398 458 23,800 -885 Descending Washington Center
01:17AM 34.3897 -78.5567 34° Northeast 387 445 22,900 -908 Descending Washington Center
01:18AM 34.4731 -78.4789 38° Northeast 381 438 22,000 -908 Descending Washington Center
01:19AM 34.5561 -78.3986 39° Northeast 376 433 21,100 -655 Descending Washington Center
01:20AM 34.6350 -78.3283 36° Northeast 371 427 20,700 -353 Descending Washington Center
01:21AM 34.7139 -78.2525 38° Northeast 365 420 20,400 -300 Descending Washington Center
01:22AM 34.7906 -78.1817 37° Northeast 352 405 20,100 -397 Descending Washington Center
01:23AM 34.8589 -78.1106 40° Northeast 352 405 19,600 -750 Descending Washington Center
01:24AM 34.9378 -78.0344 38° Northeast 358 412 18,600 -950 Descending Washington Center
01:25AM 35.0183 -77.9608 37° Northeast 364 419 17,700 -1,150 Descending Washington Center
01:26AM 35.0992 -77.8844 38° Northeast 364 419 16,300 -1,462 Descending Washington Center
01:27AM 35.1717 -77.8078 41° Northeast 357 411 14,800 -1,623 Descending Washington Center
01:28AM 35.2292 -77.7356 46° Northeast 328 377 13,000 -1,742 Descending Washington Center

Login

Don't have an account? Register now (free) for customized features, flight alerts, and more!